Wetterübersicht - Weilheim in Oberbayern     570 m über NN
47°50'16'' N 11°08'49'' - - Zeitangaben in MEZ
Datum Montag, 24. Februar 2020
Aktualisierung von 00:10 Uhr bis 23:50 Uhr alle 10 Minuten.
Zeit 22:40 (-1h = UTC-Zeit)
Temperatur Außen aktuell
13,2 °C
Min.(09:13)
3,9 °C
Max.(00:00)
14,9 °C
Durchschnitt
8,5 °C
Luftfeuchte Außen aktuell
56 %
Min.(00:00)
53 %
Max.(13:33)
93 %
Durchschnitt
83 %
Taupunkt aktuell
4,6 °C
Min.(09:15)
2,6 °C
Max.(16:36)
9,8 °C
Durchschnitt
5,6 °C
Luftdruck
aktuell
1011,4 hPa
fallend

-1,2 hPa/3h
Min.(22:31)
1011,3 hPa
Max.(07:58)
1024,2 hPa
Durchschnitt
1018,8 hPa
-0,3 hPa/1h -0,8 hPa/2h -2,8 hPa/6h -11,4 hPa/12h -7,6 hPa/24h
Solarstrahlung aktuell
0 W/m²
Max.(13:44)
554 W/m²
Durchschnitt
148 W/m²
Wettervorhersage veränderlich
Wettervorhersage VantagePro Zunehmende Bewölkung mit wenig Temperaturänderung.
Persönliches Wohlbefinden keine Belastung (5)
Windchill aktuell
13,2
Min.(06:28)
3,6
Max.(00:00)
14,9
Durchschnitt
8,5
Wind Böen aktuell
9,7 (2)
Max-Tag(00:30)
W-SW 46,7 (6)
Durchschnitt
7,0 (2)
Max Wind Böen letzte Stunde
33,8
letzten 3 Stunden
33,8
letzten 6 Stunden
33,8
Windgeschwindigkeit aktuell
6,4 (2)
Max.(00:37)
W-SW 27,4 (4)
Durchschnitt
3,7 (1)
Windrichtung 247 / W-SW dominierend
W-SW
Niederschlag
letzte Stunde 0,2
letzten 6 Stunden 0,2
aktueller Tag 7,4
aktuelle Woche 0,4
aktueller Monat 106,0
letzter Monat 21,0
Februar Vorjahr 46,8
aktuelles Jahr 127,0
Regen / Jahr 30
Schneehöhe 22,0 10.01.2019 08:09
Trockenzeiten
letzter Regen >0,2 l/m² 24.02.2020 um 22:13 Uhr
Trocken seit 27 Minuten
Längste Trockenzeit 05.09.2015, 07:01 Uhr
bis
15.01.2016, 00:17 Uhr
Dauer: 131 Tage, 17 Stunden, 16 Minuten
Dauerfrost
Letzte Dauerfrostperiode 22.02.2020, 06:03 Uhr
bis
22.02.2020, 08:37 Uhr
Dauer: 2 Stunden, 34 Minuten
Längste Dauerfrostperiode 01.01.2017, 17:12 Uhr
bis
16.02.2017, 08:37 Uhr
Dauer: 45 Tage, 15 Stunden, 24 Minuten
Sonne
Sonnenaufgang07:06
Sonnenzenit12:28
Sonnenhöchststand32,600
Sonnenintensität aktuell0
Sonnenuntergang17:51
Sonnenaufgang morgen07:05 25. Februar 2020
Tageslänge10:44
Bewölkungsgraddunkel 0
Sonnenschein akt. Tag2:51 Stunden
Sonnenschein letzte Stunde0
Sonnenschein Woche (bis Vortag)0 Minuten
Sonnenschein Monat (bis Vortag)90:48 Stunden
Mond
Alter des Mondes1 Tag, 3 Stunden, 6 Minuten
Mondaufgang07:56
Mondzenit13:10
Monduntergang18:35
Mondphase+2%
(0% = Neumond, 100% = Vollmond)
nächster Vollmond18:48 9. März 2020
nächster Neumond10:29 24. März 2020
Die dargestellten Werte repräsentieren die Daten des aktuellen Tages! Der Luftdruck ist auf Meereshöhe bezogen!
Die Mond-/Sonnen-Daten beziehen sich auf die Standortkoordinaten von 47° 50' 16" Nord - 11° 8' 49" Ost
Zeit --> Mitteleuropäische Zeit
Die Wettervorhersage wurde berechnet - ohne Gewähr!

          Aussen-    Aussen                                                    Wind                              
Zeit     tempera.   Feuchte   Luftdruck   Taupunkt  Windchill      Wind       richtung     Sonne        Regen        
----------------------------------------------------------------------------------------------------------------------------
00:00     14,9      53  1019,0     5,4    14,9     17,7     W-SW       0     0,0   
01:00     13,1      67  1019,8     7,1    13,1     20,9       SW       0     0,0   
02:00     13,5      63  1020,1     6,6    13,5      8,0     W-SW       0     0,0   
03:00     12,0      73  1020,7     7,3    12,0     14,5        W       0     0,0   
04:00      8,9      75  1021,6     4,7     8,9      3,2     N-NO       0     0,0   
05:00      5,8      88  1023,0     4,0     5,8      1,6     N-NO       0     2,2   
06:00      5,3      90  1023,9     3,8     5,3      0,0        N       0     0,2   
07:00      4,8      90  1023,9     3,3     4,8      0,0        N       0     0,8   
08:00      4,3      91  1024,2     3,0     4,3      1,6       NO       0     0,8   
09:00      4,1      91  1023,9     2,8     4,1      1,6        O      30     0,8   
10:00      4,2      92  1023,5     3,0     4,2      0,0        N      63     0,4   
11:00      4,6      92  1022,5     3,4     4,6      0,0     O-SO     125     1,2   
12:00      5,1      92  1021,6     3,9     5,1      1,6     O-SO      62     0,8   
13:00      5,5      92  1020,5     4,3     5,5      3,2        O     162     0,0   
14:00      7,7      92  1018,4     6,5     7,7      3,2       SW     278     0,0   
15:00     10,2      90  1016,5     8,6    10,2      0,0        N     387     0,0   
16:00     12,3      82  1015,1     9,3    12,3      0,0        N     209     0,0   
17:00     13,3      77  1013,9     9,4    13,3      0,0        N      26     0,0   
18:00     11,6      81  1013,4     8,5    11,6      0,0        N       0     0,0   
19:00      9,6      85  1012,8     7,2     9,6      0,0        N       0     0,0   
20:00      8,0      88  1012,5     6,1     8,0      0,0        N       0     0,0   
21:00      6,9      89  1012,0     5,2     6,9      0,0        N       0     0,0   
22:00     12,1      61  1011,6     4,8    12,1     12,9     W-SW       0     0,0   
----------------------------------------------------------------------------------------------------------------------------
Durch.     8,5      83  1018,8     5,6     8,5      3,7                           7,4

Min.       3,9      53  1011,3     2,6     3,6
Zeit       09:13     00:00      22:31       09:15     06:28

Max.      14,9      93  1024,2     9,8                 46,7              554
Zeit       00:00     13:33      07:58       16:36                  00:30                  13:44

© 1999-2016 Werner Krenn / Mischa Thurnherr - Wetterstation Bedien- und Auswertesoftware - V2.98.4

Jahres-Eistage (Tmax < 0°C) 3 Vorjahres-Eistage (Tmax < 0°C) 6
Jahres-Frostage (Tmin < 0°C) 32 Vorjahres-Frostage (Tmin < 0°C) 80
Kalte Tage des Jahres (Tmax < 10°C) 30 Kalte Tage des Vorjahres (Tmax < 10°C) 113
Jahres-Sommertage (Tmax >= 25°C) 0 Vorjahres-Sommertage (Tmax >= 25°C) 73
Heiße Tage des Jahres (Tmax >= 30°C) 0 Heiße Tage Vorjahr (Tmax >= 30°C) 28